Location: Newark
(41.8083°N, 72.2500°W)
Time: 11:06:12
(UTC+00:00)

Altair - Pass Details

Date: 01 December 2021
Orbit: 1501 x 1683 km, 47.2° (Epoch: 27 January)

Event Time Altitude Azimuth Distance (km) Brightness Sun altitude
Rises 01:00:01 0° 285° (WNW) 4,683 10.9 -40.5°
Reaches altitude 10° 01:03:07 10° 288° (WNW) 3,684 10.1 -41.1°
Enters shadow 01:10:06 53° 316° (NW) 1,802 7.9 -42.4°
